Location: Grasslands National Park East Block
(49.0708°N, 106.5295°W)
Time: 13:15:07
(UTC-06:00)

Vanguard 1 Rocket - Pass Details

Date: 30 September 2019
Orbit: 650 x 4226 km, 34.3° (Epoch: 13 October)

Event Time Altitude Azimuth Distance (km) Brightness Sun altitude
Rises 13:35:34 0° 194° (SSW) 7,703 13.1 37.3°
Reaches altitude 10° 13:42:11 10° 182° (S) 7,060 13.2 37.1°
Maximum altitude 14:00:00 25° 137° (SE) 6,149 12.2 36.2°
Drops below altitude 10° 14:16:55 10° 93° (E) 6,813 11.7 35.1°
Sets 14:22:56 0° 82° (E) 7,411 11.8 34.7°
